Location: Boncourt
(49.6160°N, 3.9448°E)
Time: 09:43:40
(UTC+00:00)

Okean O Rocket - Pass Details

Date: 09 February 2023
Orbit: 620 x 643 km, 98.1° (Epoch: 23 March)

Event Time Altitude Azimuth Distance (km) Brightness Sun altitude
Rises 18:08:32 0° 143° (SE) 2,923 4.7 -12.7°
Reaches altitude 10° 18:10:48 10° 136° (SE) 2,023 3.9 -13.0°
Maximum altitude 18:14:55 40° 68° (ENE) 949 2.0 -13.7°
Drops below altitude 10° 18:19:05 10° 359° (N) 2,048 4.2 -14.4°
Sets 18:21:23 0° 352° (N) 2,965 5.1 -14.7°
